EN

Hourly Weather Aljustrel

Today, 28 January, Thursday

Time Temperature Precipitation Wind Pressure Humidity
00:00 +13°C° 0 mm 1 mps 755 mmHg 93%
01:00 +13°C° 0 mm 1 mps 754 mmHg 93%
02:00 +12°C° 0 mm 1 mps 754 mmHg 92%
03:00 +12°C° 0 mm 1 mps 754 mmHg 92%
04:00 +12°C° 0 mm 1 mps 754 mmHg 92%
05:00 +12°C° 0 mm 1 mps 754 mmHg 93%
06:00 +13°C° 0 mm 1 mps 754 mmHg 92%
07:00 +13°C° 0 mm 1 mps 754 mmHg 90%
08:00 +14°C° 0 mm 1 mps 754 mmHg 89%
09:00 +15°C° 0 mm 1 mps 754 mmHg 82%
10:00 +18°C° 0 mm 1 mps 754 mmHg 76%
11:00 +20°C° 0 mm 1 mps 754 mmHg 69%
12:00 +21°C° 0 mm 1 mps 754 mmHg 67%
13:00 +22°C° 0 mm 1 mps 753 mmHg 65%
14:00 +22°C° 0 mm 1 mps 753 mmHg 63%
15:00 +21°C° 0 mm 1 mps 753 mmHg 70%
16:00 +19°C° 0 mm 1 mps 753 mmHg 77%
17:00 +16°C° 0 mm 1 mps 753 mmHg 84%
18:00 +15°C° 0 mm 1 mps 753 mmHg 87%
19:00 +14°C° 0 mm 1 mps 753 mmHg 90%
20:00 +13°C° 0 mm 1 mps 753 mmHg 93%
21:00 +13°C° 0 mm 1 mps 753 mmHg 93%
22:00 +12°C° 0 mm 1 mps 753 mmHg 94%
23:00 +12°C° 0 mm 1 mps 753 mmHg 94%

Tomorrow, 29 January, Friday

Time Temperature Precipitation Wind Pressure Humidity
00:00 +12°C° 0 mm 1 mps 753 mmHg 95%
01:00 +12°C° 0 mm 1 mps 753 mmHg 96%
02:00 +11°C° 0 mm 1 mps 753 mmHg 96%
03:00 +12°C° 0 mm 1 mps 753 mmHg 97%
04:00 +12°C° 0 mm 1 mps 753 mmHg 97%
05:00 +12°C° 0 mm 1 mps 753 mmHg 97%
06:00 +13°C° 0 mm 1 mps 753 mmHg 96%
07:00 +12°C° 0 mm 0 mps 753 mmHg 94%
08:00 +13°C° 0 mm 0 mps 753 mmHg 93%
09:00 +13°C° 0 mm 0 mps 753 mmHg 90%
10:00 +15°C° 0 mm 1 mps 754 mmHg 87%
11:00 +15°C° 0 mm 1 mps 754 mmHg 85%
12:00 +16°C° 0 mm 1 mps 753 mmHg 82%
13:00 +17°C° 0 mm 2 mps 753 mmHg 78%
14:00 +18°C° 0 mm 2 mps 752 mmHg 75%
15:00 +16°C° 0 mm 2 mps 752 mmHg 81%
16:00 +15°C° 0 mm 2 mps 752 mmHg 86%
17:00 +14°C° 0 mm 2 mps 752 mmHg 91%
18:00 +13°C° 0 mm 2 mps 753 mmHg 92%
19:00 +13°C° 0 mm 2 mps 753 mmHg 93%
20:00 +12°C° 0 mm 2 mps 753 mmHg 94%
21:00 +13°C° 0 mm 2 mps 753 mmHg 94%
22:00 +13°C° 0 mm 2 mps 753 mmHg 93%
23:00 +12°C° 0 mm 3 mps 753 mmHg 93%

Day after tomorrow, 30 January, Saturday

Time Temperature Precipitation Wind Pressure Humidity
00:00 +13°C° 0 mm 3 mps 753 mmHg 91%
01:00 +13°C° 0 mm 4 mps 752 mmHg 90%
02:00 +13°C° 0 mm 4 mps 752 mmHg 88%
03:00 +14°C° 0.1 mm 4 mps 752 mmHg 90%
04:00 +14°C° 0.1 mm 4 mps 751 mmHg 92%
05:00 +14°C° 0.1 mm 4 mps 751 mmHg 94%
06:00 +13°C° 0 mm 4 mps 751 mmHg 93%
07:00 +13°C° 0 mm 4 mps 752 mmHg 93%
08:00 +13°C° 0 mm 3 mps 752 mmHg 93%
09:00 +14°C° 0 mm 4 mps 752 mmHg 84%
10:00 +15°C° 0 mm 5 mps 752 mmHg 76%
11:00 +15°C° 0 mm 6 mps 752 mmHg 68%
12:00 +15°C° 0 mm 6 mps 752 mmHg 68%
13:00 +15°C° 0 mm 7 mps 752 mmHg 67%
14:00 +15°C° 0 mm 7 mps 752 mmHg 67%
15:00 +14°C° 0 mm 6 mps 752 mmHg 69%
16:00 +13°C° 0 mm 5 mps 752 mmHg 72%
17:00 +12°C° 0 mm 5 mps 752 mmHg 75%
18:00 +11°C° 0 mm 4 mps 753 mmHg 78%
19:00 +10°C° 0 mm 4 mps 753 mmHg 81%
20:00 +10°C° 0 mm 3 mps 754 mmHg 84%
21:00 +9°C° 0 mm 3 mps 754 mmHg 86%
22:00 +9°C° 0 mm 3 mps 754 mmHg 87%
23:00 +9°C° 0 mm 3 mps 754 mmHg 88%

31 January, Sunday

Time Temperature Precipitation Wind Pressure Humidity
00:00 +9°C° 0 mm 3 mps 754 mmHg 88%
01:00 +9°C° 0 mm 3 mps 753 mmHg 88%
02:00 +9°C° 0 mm 3 mps 753 mmHg 89%
03:00 +9°C° 0 mm 3 mps 753 mmHg 89%
04:00 +9°C° 0 mm 3 mps 753 mmHg 90%
05:00 +9°C° 0 mm 3 mps 753 mmHg 91%
06:00 +10°C° 0 mm 3 mps 753 mmHg 90%
07:00 +10°C° 0 mm 3 mps 754 mmHg 89%
08:00 +11°C° 0 mm 3 mps 754 mmHg 88%
09:00 +12°C° 0 mm 3 mps 754 mmHg 83%
10:00 +14°C° 0 mm 4 mps 754 mmHg 77%
11:00 +15°C° 0 mm 4 mps 754 mmHg 72%
12:00 +16°C° 0 mm 5 mps 754 mmHg 70%
13:00 +16°C° 0 mm 5 mps 753 mmHg 68%
14:00 +16°C° 0 mm 5 mps 753 mmHg 67%
15:00 +15°C° 0 mm 5 mps 753 mmHg 72%
16:00 +14°C° 0 mm 4 mps 753 mmHg 78%
17:00 +13°C° 0 mm 4 mps 752 mmHg 84%
18:00 +13°C° 0 mm 4 mps 753 mmHg 88%
19:00 +13°C° 0 mm 4 mps 753 mmHg 91%
20:00 +12°C° 0 mm 4 mps 753 mmHg 95%
21:00 +13°C° 0 mm 4 mps 753 mmHg 95%
22:00 +13°C° 0 mm 4 mps 753 mmHg 95%
23:00 +14°C° 0 mm 4 mps 753 mmHg 95%

1 February, Monday

Time Temperature Precipitation Wind Pressure Humidity
00:00 +14°C° 0.1 mm 4 mps 753 mmHg 95%
01:00 +14°C° 0.1 mm 3 mps 753 mmHg 96%
02:00 +14°C° 0.1 mm 3 mps 752 mmHg 96%
03:00 +14°C° 0 mm 3 mps 752 mmHg 97%
04:00 +14°C° 0 mm 2 mps 752 mmHg 97%
05:00 +14°C° 0 mm 2 mps 752 mmHg 97%
06:00 +14°C° 0 mm 2 mps 753 mmHg 96%
07:00 +15°C° 0 mm 1 mps 753 mmHg 94%
08:00 +15°C° 0 mm 1 mps 753 mmHg 93%
09:00 +16°C° 0 mm 2 mps 753 mmHg 87%
10:00 +17°C° 0 mm 2 mps 753 mmHg 82%
11:00 +18°C° 0 mm 3 mps 754 mmHg 76%
12:00 +18°C° 0 mm 3 mps 753 mmHg 75%
13:00 +18°C° 0 mm 3 mps 753 mmHg 73%
14:00 +18°C° 0 mm 3 mps 752 mmHg 72%
15:00 +18°C° 0 mm 3 mps 752 mmHg 77%
16:00 +17°C° 0 mm 3 mps 753 mmHg 82%
17:00 +16°C° 0 mm 2 mps 753 mmHg 87%
18:00 +15°C° 0 mm 2 mps 753 mmHg 89%
19:00 +15°C° 0 mm 2 mps 753 mmHg 91%
20:00 +14°C° 0 mm 1 mps 753 mmHg 94%
21:00 +14°C° 0 mm 1 mps 753 mmHg 95%
22:00 +13°C° 0 mm 1 mps 753 mmHg 96%
23:00 +12°C° 0 mm 1 mps 753 mmHg 97%

2 February, Tuesday

Time Temperature Precipitation Wind Pressure Humidity
00:00 +12°C° 0 mm 1 mps 753 mmHg 96%
01:00 +12°C° 0 mm 1 mps 753 mmHg 96%
02:00 +12°C° 0 mm 1 mps 753 mmHg 95%
03:00 +12°C° 0 mm 1 mps 752 mmHg 94%
04:00 +12°C° 0 mm 1 mps 752 mmHg 92%
05:00 +12°C° 0 mm 1 mps 752 mmHg 90%
06:00 +12°C° 0 mm 1 mps 752 mmHg 88%
07:00 +12°C° 0 mm 0 mps 752 mmHg 85%
08:00 +12°C° 0 mm 0 mps 753 mmHg 82%
09:00 +14°C° 0 mm 1 mps 752 mmHg 78%
10:00 +15°C° 0 mm 1 mps 752 mmHg 75%
11:00 +16°C° 0 mm 1 mps 752 mmHg 71%
12:00 +18°C° 0 mm 1 mps 751 mmHg 68%
13:00 +19°C° 0 mm 1 mps 751 mmHg 65%
14:00 +20°C° 0 mm 1 mps 750 mmHg 62%
15:00 +17°C° 0 mm 2 mps 750 mmHg 70%
16:00 +16°C° 0 mm 2 mps 750 mmHg 77%
17:00 +14°C° 0 mm 2 mps 750 mmHg 85%
18:00 +13°C° 0 mm 2 mps 750 mmHg 88%
19:00 +12°C° 0 mm 2 mps 750 mmHg 92%
20:00 +11°C° 0 mm 1 mps 750 mmHg 95%
21:00 +11°C° 0 mm 1 mps 750 mmHg 95%
22:00 +10°C° 0 mm 2 mps 750 mmHg 96%
23:00 +10°C° 0 mm 2 mps 749 mmHg 96%
Show more